Weather History for KCMI - June, 2014

Change the Weather History Date:

Monday, June 2, 2014

  Actual Average Record
Temperature  
Mean Temperature 76 °F 69 °F  
Max Temperature 82 °F 81 °F 88 °F (2008)
Min Temperature 70 °F 57 °F 45 °F (2012)
Degree Days  
Heating Degree Days 0 2  
Month to date heating degree days 0 4  
Since 1 June heating degree days 0 4  
Since 1 July heating degree days 6486 5810  
Cooling Degree Days 11 5  
Month to date cooling degree days 24 10  
Year to date cooling degree days 176 102  
Since 1 June cooling degree days 24 10  
Growing Degree Days 26 (Base 50)    
Moisture  
Dew Point 68 °F    
Average Humidity 80    
Maximum Humidity 93    
Minimum Humidity 67    
Precipitation  
Precipitation 0.06 in 0.17 in 0.62 in (1951)
Month to date precipitation 0.29 0.36  
Year to date precipitation 14.83 15.52  
Sea Level Pressure  
Sea Level Pressure 29.93 in    
Wind  
Wind Speed 18 mph (SSW)    
Max Wind Speed 35 mph    
Max Gust Speed 43 mph    
Visibility 9 miles    
Events Rain , Thunderstorm    
T = Trace of Precipitation, MM = Missing Value Source: NWS Daily Summary

Daily Weather History Graph

Daily Weather History Graph

Search for Another Location

Airport or City:

Trip Planner

Search our weather history database for the weather conditions in past years. The results will help you decide how hot, cold, wet, or windy it might be!

Date:

Astronomy

Jun. 02, 2014 Rise Set
Actual Time 5:25 AM CDT 8:16 PM CDT
Civil Twilight 4:53 AM CDT 8:49 PM CDT
Nautical Twilight 4:13 AM CDT 9:29 PM CDT
Astronomical Twilight 3:26 AM CDT 10:16 PM CDT
Moon 9:53 AM CDT (6/2) 11:45 PM CDT (6/2)
Length of Visible Light 15h 55m
Length of Day
14h 50m
Waxing Crescent, 22% of the Moon is Illuminated
Jun 2
Waxing Crescent
Jun 5
First Quarter
Jun 12
Full
Jun 19
Last Quarter
Jun 27
New

Hourly Weather History & Observations

Time (CDT) Temp. Heat Index Dew Point Humidity Pressure Visibility Wind Dir Wind Speed Gust Speed Precip Events Conditions
12:53 AM 72.0 °F - 68.0 °F 87% 29.96 in 10.0 mi South 13.8 mph - N/A   Partly Cloudy
1:53 AM 72.0 °F - 68.0 °F 87% 29.96 in 10.0 mi South 12.7 mph - N/A   Partly Cloudy
2:53 AM 72.0 °F - 69.1 °F 91% 29.95 in 9.0 mi South 15.0 mph - N/A   Clear
3:53 AM 72.0 °F - 68.0 °F 87% 29.95 in 10.0 mi South 15.0 mph - N/A   Mostly Cloudy
4:53 AM 72.0 °F - 68.0 °F 87% 29.94 in 10.0 mi South 17.3 mph - N/A   Clear
5:25 AM 72.0 °F - 69.1 °F 91% 29.95 in 9.0 mi South 17.3 mph - N/A   Mostly Cloudy
5:50 AM 71.6 °F - 69.8 °F 94% 29.94 in 7.0 mi South 18.4 mph - N/A   Mostly Cloudy
5:53 AM 72.0 °F - 69.1 °F 91% 29.93 in 7.0 mi South 17.3 mph - N/A   Mostly Cloudy
6:44 AM 73.0 °F - 69.1 °F 87% 29.95 in 9.0 mi South 18.4 mph - N/A   Mostly Cloudy
6:53 AM 73.0 °F - 69.1 °F 87% 29.94 in 9.0 mi South 20.7 mph - N/A   Mostly Cloudy
7:19 AM 73.9 °F - 70.0 °F 87% 29.94 in 10.0 mi South 17.3 mph 27.6 mph N/A   Scattered Clouds
7:50 AM 75.2 °F - 69.8 °F 83% 29.94 in 10.0 mi South 24.2 mph 31.1 mph N/A   Mostly Cloudy
7:53 AM 75.0 °F - 69.1 °F 82% 29.93 in 10.0 mi South 23.0 mph - N/A   Mostly Cloudy
8:30 AM 75.9 °F - 68.0 °F 76% 29.94 in 10.0 mi South 31.1 mph 36.8 mph N/A   Scattered Clouds
8:53 AM 77.0 °F - 68.0 °F 74% 29.92 in 10.0 mi South 29.9 mph 38.0 mph N/A   Scattered Clouds
9:10 AM 78.1 °F - 69.1 °F 74% 29.93 in 10.0 mi South 28.8 mph 38.0 mph N/A   Mostly Cloudy
9:53 AM 78.1 °F - 68.0 °F 71% 29.92 in 10.0 mi South 31.1 mph 40.3 mph N/A   Overcast
10:53 AM 78.1 °F - 68.0 °F 71% 29.94 in 10.0 mi SSW 25.3 mph 33.4 mph N/A   Overcast
12:53 PM 81.0 °F 83.8 °F 68.0 °F 65% 29.93 in 10.0 mi SSW 20.7 mph 28.8 mph N/A   Overcast
1:53 PM 73.0 °F - 68.0 °F 84% 29.92 in 4.0 mi SW 17.3 mph - 0.06 in Rain , Thunderstorm Light Rain
2:24 PM 75.9 °F - 71.1 °F 85% 29.93 in 9.0 mi SW 13.8 mph - 0.00 in   Overcast
2:53 PM 77.0 °F - 70.0 °F 79% 29.90 in 10.0 mi WSW 15.0 mph - 0.00 in   Clear
4:53 PM 77.0 °F - 71.1 °F 82% 29.89 in 10.0 mi SSW 12.7 mph - 0.00 in   Partly Cloudy
5:53 PM 77.0 °F - 68.0 °F 74% 29.88 in 10.0 mi SSW 12.7 mph - N/A   Clear
6:53 PM 78.1 °F - 66.0 °F 66% 29.89 in 10.0 mi SW 18.4 mph - N/A   Clear
7:53 PM 75.9 °F - 68.0 °F 76% 29.90 in 10.0 mi SSW 12.7 mph - N/A   Partly Cloudy
8:53 PM 73.0 °F - 68.0 °F 84% 29.91 in 10.0 mi SSW 9.2 mph - N/A   Clear
9:53 PM 72.0 °F - 66.9 °F 84% 29.93 in 10.0 mi SSW 10.4 mph - N/A   Clear
10:53 PM 70.0 °F - 66.0 °F 87% 29.94 in 10.0 mi SSW 9.2 mph - N/A   Clear
11:53 PM 71.1 °F - 66.0 °F 84% 29.94 in 10.0 mi SSW 10.4 mph - N/A   Partly Cloudy